Torna al catalogo

COSMOS 2251 DEB

AttivoLEO
NORAD 36008·DEBRIS·🇷🇺 Russia

Lanciato Jun 16, 1993 da Plesetsk Cosmodrome

Loading…

Prossimi Passaggi (prossime 24 ore)

TLE

ObsoletoSource: Space-Track

Epoca: Sep 8, 2026, 08:44 UTC

1 36008U 93036AXA 26251.36453361  .00003287  00000-0  11607-2 0  9992
2 36008  74.0060 140.8807 0163105 222.2979 136.5499 14.27911991644693

Traccia COSMOS 2251 DEB in tempo reale con AllMySat

Download on the App Store